Jaffrey, NH

7:31 PM EDT on September 20, 2019 (GMT -0400)
Jaffrey Airport-Silver Ranch

Weather History for KAFN - August, 2019

Change the Weather History Date:

Friday, August 23, 2019

  Actual Average Record
Temperature  
Mean Temperature 64 °F -  
Max Temperature 75 °F 75 °F 84 °F (2012)
Min Temperature 53 °F 54 °F 46 °F (2016)
Degree Days  
Heating Degree Days 2    
Growing Degree Days 14 (Base 50)    
Moisture  
Dew Point 53 °F    
Average Humidity 64    
Maximum Humidity 90    
Minimum Humidity 43    
Precipitation  
Precipitation 0.00 in - - ()
Sea Level Pressure  
Sea Level Pressure 30.01 in    
Wind  
Wind Speed 2 mph ()    
Max Wind Speed 7 mph    
Max Gust Speed -    
Visibility 10.0 miles    
Events      
Averages and records for this station are not official NWS values.
T = Trace of Precipitation, MM = Missing Value Source: Averaged Metar Reports

Daily Weather History Graph

Daily Weather History Graph

Search for Another Location

Airport or City:

Astronomy

Aug. 23, 2019 Rise Set
Actual Time 6:02 AM EDT 7:37 PM EDT
Civil Twilight 5:32 AM EDT 8:07 PM EDT
Nautical Twilight 4:56 AM EDT 8:43 PM EDT
Astronomical Twilight 4:18 AM EDT 9:22 PM EDT
Moon 11:52 PM EDT (8/23) 1:47 PM EDT (8/23)
Length of Visible Light 14h 34m
Length of Day
13h 35m
Waning Gibbous, 50% of the Moon is Illuminated
Aug 23
Waning Gibbous
Aug 30
New
Sep 5
First Quarter
Sep 14
Full
Sep 21
Last Quarter

Hourly Weather History & Observations

Time (EDT) Temp. Dew Point Humidity Pressure Visibility Wind Dir Wind Speed Gust Speed Precip Events Conditions
12:52 AM 69.1 °F 54.0 °F 58% 29.94 in 10.0 mi West 4.6 mph - N/A   Scattered Clouds
1:52 AM 68.0 °F 53.1 °F 59% 29.94 in 10.0 mi Calm Calm - N/A   Overcast
2:52 AM 64.0 °F 55.0 °F 73% 29.94 in 10.0 mi Calm Calm - N/A   Mostly Cloudy
3:52 AM 64.0 °F 57.0 °F 78% 29.94 in 10.0 mi Calm Calm - N/A   Overcast
4:52 AM 64.9 °F 54.0 °F 68% 29.95 in 10.0 mi West 3.5 mph - N/A   Overcast
5:52 AM 63.0 °F 54.0 °F 72% 29.96 in 10.0 mi Calm Calm - N/A   Clear
6:52 AM 62.1 °F 55.0 °F 78% 29.99 in 10.0 mi Calm Calm - N/A   Partly Cloudy
7:52 AM 63.0 °F 55.0 °F 75% 30.00 in 10.0 mi Calm Calm - N/A   Scattered Clouds
8:52 AM 66.9 °F 53.1 °F 61% 30.01 in 10.0 mi Calm Calm - N/A   Clear
9:52 AM 66.9 °F 55.0 °F 66% 30.02 in 10.0 mi Variable 3.5 mph - N/A   Clear
10:52 AM 69.1 °F 53.1 °F 57% 30.02 in 10.0 mi NNW 4.6 mph - N/A   Clear
11:52 AM 70.0 °F 52.0 °F 53% 30.01 in 10.0 mi Variable 3.5 mph - N/A   Partly Cloudy
12:52 PM 72.0 °F 51.1 °F 48% 30.00 in 10.0 mi Variable 4.6 mph - N/A   Clear
1:52 PM 73.9 °F 50.0 °F 43% 30.00 in 10.0 mi NW 6.9 mph - N/A   Partly Cloudy
2:52 PM 73.9 °F 51.1 °F 45% 29.99 in 10.0 mi Variable 4.6 mph - N/A   Mostly Cloudy
3:52 PM 73.0 °F 51.1 °F 46% 30.01 in 10.0 mi Variable 4.6 mph - N/A   Mostly Cloudy
4:52 PM 72.0 °F 52.0 °F 49% 30.01 in 10.0 mi Variable 4.6 mph - N/A   Scattered Clouds
5:52 PM 70.0 °F 53.1 °F 55% 30.02 in 10.0 mi Variable 3.5 mph - N/A   Clear
6:52 PM 68.0 °F 54.0 °F 61% 30.04 in 10.0 mi Calm Calm - N/A   Clear
7:52 PM 64.9 °F 53.1 °F 65% 30.05 in 10.0 mi Calm Calm - N/A   Clear
8:52 PM 62.1 °F 52.0 °F 70% 30.07 in 10.0 mi Calm Calm - N/A   Clear
9:52 PM 57.0 °F 52.0 °F 83% 30.08 in 10.0 mi Calm Calm - N/A   Clear
10:52 PM 54.0 °F 51.1 °F 90% 30.09 in 10.0 mi Calm Calm - N/A   Clear
11:52 PM 53.1 °F 50.0 °F 89% 30.11 in 10.0 mi Calm Calm - N/A   Clear